Location: Tel Aviv
(32.0670°N, 34.7670°E)
Time: 09:44:53
(UTC+02:00)

Transit 2A - Visible Passes

Search period start: 28 January 2022 00:00
Search period end: 07 February 2022 00:00
Orbit: 591 x 966 km, 66.7° (Epoch: 27 January)

Date Brightness Start Highest point End Pass type
(mag) Time Alt. Az. Time Alt. Az. Time Alt. Az.
28 Jan 7.3 18:45:18 10° N 18:49:01 26° NNE 18:49:01 26° NNE visible
28 Jan 8.7 20:28:28 10° NW 20:29:34 15° NW 20:29:34 15° NW visible
29 Jan 7.4 18:11:36 10° N 18:15:52 20° NE 18:16:49 19° ENE visible
29 Jan 7.5 19:53:53 10° NW 19:57:23 34° NW 19:57:23 34° NW visible
30 Jan 7.8 17:38:18 10° NNE 17:41:17 14° NE 17:44:09 10° ENE visible
30 Jan 6.1 19:19:29 10° NNW 19:25:19 79° WSW 19:25:31 78° SW visible
31 Jan 6.0 18:45:16 10° NNW 18:51:05 68° ENE 18:54:07 26° SE visible
31 Jan 8.9 20:31:28 10° W 20:33:23 12° W 20:34:45 11° WSW visible
01 Feb 6.4 18:11:10 10° NNW 18:16:46 45° ENE 18:21:46 10° SE visible
01 Feb 8.5 19:55:35 10° WNW 19:59:26 19° WSW 20:03:03 10° SSW visible
02 Feb 6.9 17:37:15 10° N 17:42:21 30° NE 17:47:00 10° ESE visible
02 Feb 7.9 19:20:35 10° NW 19:25:26 30° WSW 19:29:53 10° SSW visible
03 Feb 7.1 18:45:56 10° NW 18:51:23 47° WSW 18:56:16 10° S visible
04 Feb 6.3 18:11:31 10° NNW 18:17:15 73° WSW 18:22:21 10° SSE visible
05 Feb 6.1 17:37:16 10° NNW 17:43:03 74° ENE 17:48:10 10° SSE visible
05 Feb 9.4 19:24:24 10° W 19:25:16 10° W 19:26:07 10° WSW visible
06 Feb 9.0 18:47:49 10° WNW 18:51:20 17° WSW 18:54:39 10° SW visible
